Afton, WI

7:25 PM CST on February 10, 2016 (GMT -0600)
Rock County

Weather History for KJVL - May, 2013

Change the Weather History Date:

Tuesday, May 21, 2013

  Actual Average Record
Temperature  
Mean Temperature 71 °F -  
Max Temperature 80 °F 65 °F 87 °F (1992)
Min Temperature 60 °F 45 °F 30 °F (2002)
Cooling Degree Days 6    
Growing Degree Days 21 (Base 50)    
Moisture  
Dew Point 56 °F    
Average Humidity 69    
Maximum Humidity 88    
Minimum Humidity 37    
Precipitation  
Precipitation 0.01 in - - ()
Sea Level Pressure  
Sea Level Pressure 29.66 in    
Wind  
Wind Speed 10 mph (SSW)    
Max Wind Speed 18 mph    
Max Gust Speed 29 mph    
Visibility 10 miles    
Events      
Averages and records for this station are not official NWS values.
T = Trace of Precipitation, MM = Missing Value Source: NWS Daily Summary

Daily Weather History Graph

Daily Weather History Graph

Search for Another Location

Airport or City:

Trip Planner

Search our weather history database for the weather conditions in past years. The results will help you decide how hot, cold, wet, or windy it might be!

Date:

Astronomy

May. 21, 2013 Rise Set
Actual Time 5:28 AM CDT 8:17 PM CDT
Civil Twilight 4:55 AM CDT 8:51 PM CDT
Nautical Twilight 4:13 AM CDT 9:33 PM CDT
Astronomical Twilight 3:25 AM CDT 10:21 PM CDT
Moon 4:27 PM CDT (5/21) 3:01 AM CDT (5/21)
Length of Visible Light 15h 55m
Length of Day
14h 49m
Waxing Gibbous, 84% of the Moon is Illuminated
May 21
Waxing Gibbous
May 24
Full
May 31
Last Quarter
Jun 8
New
Jun 16
First Quarter

Hourly Weather History & Observations

Time (CDT) Temp. Dew Point Humidity Pressure Visibility Wind Dir Wind Speed Gust Speed Precip Events Conditions
12:35 AM 66.2 °F 60.8 °F 83% 29.66 in 10.0 mi SSE 15.0 mph - 0.01 in   Scattered Clouds
12:55 AM 66.2 °F 60.8 °F 83% 29.67 in 10.0 mi SSE 12.7 mph - 0.01 in   Clear
1:15 AM 66.2 °F 59.0 °F 78% 29.67 in 10.0 mi SSE 10.4 mph - N/A   Scattered Clouds
1:35 AM 66.2 °F 59.0 °F 78% 29.67 in 10.0 mi South 10.4 mph - N/A   Mostly Cloudy
1:55 AM 64.4 °F 60.8 °F 88% 29.66 in 10.0 mi South 8.1 mph - N/A   Clear
2:15 AM 64.4 °F 60.8 °F 88% 29.65 in 10.0 mi South 8.1 mph - N/A   Scattered Clouds
2:35 AM 64.4 °F 59.0 °F 83% 29.65 in 10.0 mi South 9.2 mph - N/A   Clear
2:55 AM 66.2 °F 59.0 °F 78% 29.64 in 10.0 mi South 9.2 mph - N/A   Scattered Clouds
3:15 AM 66.2 °F 59.0 °F 78% 29.64 in 10.0 mi South 11.5 mph - N/A   Overcast
3:35 AM 66.2 °F 59.0 °F 78% 29.64 in 10.0 mi South 10.4 mph - N/A   Overcast
3:55 AM 66.2 °F 57.2 °F 73% 29.64 in 10.0 mi SSW 9.2 mph 16.1 mph N/A   Overcast
4:15 AM 64.4 °F 57.2 °F 77% 29.64 in 10.0 mi South 11.5 mph 17.3 mph N/A   Overcast
4:35 AM 64.4 °F 57.2 °F 77% 29.65 in 10.0 mi SSW 9.2 mph - N/A   Overcast
4:55 AM 64.4 °F 57.2 °F 77% 29.65 in 10.0 mi SSW 9.2 mph - N/A   Scattered Clouds
5:15 AM 62.6 °F 57.2 °F 82% 29.66 in 10.0 mi SSW 9.2 mph - N/A   Clear
5:35 AM 62.6 °F 57.2 °F 82% 29.66 in 10.0 mi SSW 11.5 mph - N/A   Clear
5:45 AM 64.4 °F 57.2 °F 77% 29.66 in 10.0 mi SSW 11.5 mph - N/A   Scattered Clouds
6:45 AM 64.4 °F 59.0 °F 83% 29.66 in 10.0 mi SSW 13.8 mph 18.4 mph N/A   Overcast
8:45 AM 66.2 °F 60.8 °F 83% 29.67 in 10.0 mi SSW 11.5 mph 17.3 mph N/A   Overcast
9:45 AM 66.2 °F 60.8 °F 83% 29.68 in 10.0 mi SSW 13.8 mph 17.3 mph N/A   Overcast
11:54 AM 75.2 °F 60.8 °F 61% 29.65 in 10.0 mi South 12.7 mph 18.4 mph N/A   Scattered Clouds
12:45 PM 78.8 °F 57.2 °F 47% 29.63 in 10.0 mi SSW 18.4 mph 28.8 mph N/A   Scattered Clouds
2:45 PM 80.6 °F 51.8 °F 37% 29.65 in 10.0 mi SSW 9.2 mph 26.5 mph N/A   Scattered Clouds
3:45 PM 78.8 °F 51.8 °F 39% 29.65 in 10.0 mi SW 13.8 mph 21.9 mph N/A   Scattered Clouds
4:45 PM 80.6 °F 51.8 °F 37% 29.66 in 10.0 mi SW 16.1 mph 21.9 mph N/A   Scattered Clouds
5:45 PM 78.8 °F 51.8 °F 39% 29.65 in 10.0 mi WSW 12.7 mph 18.4 mph N/A   Scattered Clouds
6:45 PM 77.0 °F 53.6 °F 44% 29.65 in 10.0 mi West 11.5 mph - N/A   Scattered Clouds
8:45 PM 71.6 °F 51.8 °F 50% 29.68 in 10.0 mi West 6.9 mph - N/A   Scattered Clouds
9:15 PM 68.0 °F 51.8 °F 56% 29.69 in 10.0 mi Calm Calm - N/A   Clear
9:35 PM 68.0 °F 51.8 °F 56% 29.70 in 10.0 mi Calm Calm - N/A   Scattered Clouds
9:55 PM 69.8 °F 51.8 °F 53% 29.69 in 10.0 mi Calm Calm - N/A   Scattered Clouds
10:15 PM 66.2 °F 53.6 °F 64% 29.68 in 10.0 mi Calm Calm - N/A   Mostly Cloudy
10:35 PM 64.4 °F 53.6 °F 68% 29.68 in 10.0 mi ESE 4.6 mph - N/A   Scattered Clouds
10:55 PM 64.4 °F 53.6 °F 68% 29.68 in 10.0 mi Calm Calm - N/A   Clear
11:15 PM 64.4 °F 53.6 °F 68% 29.67 in 10.0 mi Calm Calm - N/A   Clear
11:35 PM 62.6 °F 53.6 °F 72% 29.67 in 10.0 mi Calm Calm - N/A   Clear
11:55 PM 60.8 °F 53.6 °F 77% 29.67 in 10.0 mi Calm Calm - N/A   Clear